Theta_e
302 305 305 306 305 307 306 306 307 307 307 307 308 307 308 306 309 309 306 311 310 311 312 315 316 316 317 317 319 319 319 318 318 320 320 318 319 320 319 317 317 315 311 309 306 311 312 310 305 304 302 302 300 299 298 297 294 293 293 292 291 289 289 287 285 282 284 283 284 284 285 285 284 283 283 283 284 284 287 284 285 285 284 283 283
303 304 301 302 303 303 304 303 304 304 305 305 305 304 304 306 305 305 305 304 306 311 312 314 315 317 317 317 317 317 318 320 319 317 315 315 315 315 314 314 314 310 307 308 306 306 305 305 302 301 300 302 299 298 298 296 295 294 291 290 289 288 285 287 284 285 284 283 282 283 284 283 284 282 284 283 284 284 285 284 284 284 283 284 284
298 299 300 301 300 300 300 300 301 302 303 302 299 298 299 299 299 304 301 302 303 306 310 311 312 313 314 313 315 314 316 316 316 316 316 316 315 312 309 310 311 308 306 307 306 304 303 302 300 298 298 297 296 297 296 296 294 295 292 289 288 287 285 284 284 284 283 283 282 283 283 283 282 282 283 284 284 284 284 284 285 285 284 283 283
296 296 297 297 297 297 298 296 298 298 299 295 295 296 297 297 297 302 303 304 307 305 307 309 308 309 310 311 311 311 308 308 309 310 314 313 314 314 310 310 310 309 309 308 306 304 304 301 299 298 297 299 297 296 293 293 292 292 290 288 287 286 285 283 283 283 282 283 282 283 283 282 282 281 283 283 284 283 283 284 284 283 282 283 283
296 294 293 294 294 295 295 293 295 294 295 295 297 298 299 300 299 302 302 303 305 306 305 305 306 308 309 309 310 310 311 311 311 310 310 309 310 309 309 308 307 307 307 307 301 304 303 302 299 296 295 296 292 291 290 291 291 290 291 288 286 285 284 284 282 281 283 284 283 281 280 281 280 280 282 284 282 282 281 282 282 282 282 282 282
292 292 290 292 292 292 291 290 291 292 293 294 296 298 298 300 300 299 300 305 303 302 303 302 302 306 306 308 308 308 308 308 308 309 309 307 306 306 306 306 305 304 303 302 303 303 302 301 298 297 297 298 296 294 292 293 291 290 289 287 285 284 283 281 282 282 283 282 283 282 281 282 281 281 281 283 283 282 281 281 281 282 281 281 281
293 293 292 292 291 291 292 293 295 297 298 298 298 298 298 297 297 299 298 299 300 300 299 301 299 301 303 303 304 305 305 304 305 305 305 305 304 304 303 303 302 301 300 300 300 300 300 300 297 296 297 298 296 293 292 292 291 290 289 287 284 283 282 282 282 282 282 281 280 281 281 280 280 281 281 282 282 282 282 280 280 281 280 280 279
299 298 297 297 297 296 295 295 296 297 297 298 299 298 298 297 297 296 296 298 298 298 298 299 298 298 298 299 299 299 299 300 300 300 301 301 300 299 298 298 298 298 296 297 297 298 298 297 296 295 296 296 296 294 293 292 290 289 286 285 283 282 281 281 281 281 280 280 280 279 279 279 279 279 280 281 280 280 280 281 280 279 279 279 279
299 298 298 298 297 297 296 295 297 297 296 297 297 297 296 295 294 294 294 294 294 294 296 297 296 296 295 296 297 297 298 300 299 298 299 298 299 300 299 297 295 295 294 293 292 293 294 294 294 294 294 292 291 290 290 290 289 287 285 284 283 282 281 280 280 279 279 279 278 279 279 278 280 280 279 280 281 281 280 279 279 278 278 277 278
298 298 297 297 296 297 297 297 297 296 295 296 295 292 292 291 291 291 292 292 292 292 293 294 294 294 294 293 293 294 296 297 294 295 296 299 298 298 296 294 294 294 293 292 292 292 293 293 292 290 289 288 288 289 289 289 289 289 286 285 283 282 281 280 279 279 279 278 278 279 278 279 280 280 281 282 281 279 279 279 277 277 277 276 275
298 297 297 297 297 297 297 297 296 295 295 293 291 291 290 289 289 289 289 290 291 290 291 292 291 291 292 292 292 293 295 296 294 295 297 297 297 296 296 294 294 292 292 292 293 291 290 290 289 288 287 287 287 288 289 289 289 288 288 287 286 283 281 279 279 279 278 278 278 278 279 279 280 281 281 281 280 280 280 279 278 276 274 272 271
297 297 297 297 297 297 296 294 293 292 291 291 291 290 289 289 289 289 288 289 289 288 290 290 290 290 291 290 291 291 292 293 295 295 296 296 295 295 294 293 293 291 291 291 290 289 288 287 287 288 288 288 287 287 288 288 288 288 288 288 287 288 287 282 280 278 277 277 277 279 279 280 281 281 281 281 279 279 279 278 277 275 274 273 273
296 296 296 297 297 297 294 293 292 291 291 291 290 289 289 289 288 288 289 288 287 289 289 289 290 289 290 290 290 290 290 292 294 294 295 295 295 294 292 291 290 290 289 289 289 288 287 287 286 286 287 286 286 287 286 286 287 288 288 287 287 288 288 288 287 282 281 280 279 279 280 281 281 281 282 281 281 279 277 277 277 277 275 274 273
296 296 296 297 296 295 293 293 292 291 290 289 289 289 289 289 288 288 288 287 288 288 288 288 288 289 288 289 289 289 290 291 293 294 294 294 295 294 291 290 289 289 289 289 288 287 287 287 286 286 285 285 285 286 285 284 282 282 282 281 282 284 287 288 287 286 284 282 281 280 282 283 282 282 281 283 280 279 277 277 277 276 275 275 275
295 295 295 295 294 294 293 293 292 290 289 289 288 288 289 288 288 288 288 288 288 288 288 288 289 288 288 288 288 290 290 292 293 293 294 294 294 292 289 290 289 289 288 288 288 287 287 287 286 286 284 284 284 284 284 283 281 281 280 279 280 281 281 282 281 281 282 282 282 282 282 282 282 281 281 282 281 280 280 278 277 276 275 276 275
294 294 294 294 294 294 293 292 291 290 289 288 288 288 288 288 288 288 287 287 287 288 287 288 288 288 288 289 289 290 289 291 292 293 293 294 294 290 288 288 288 287 287 287 287 286 286 286 285 284 283 282 284 286 284 282 280 279 278 278 278 279 280 282 284 284 282 282 282 282 282 282 283 281 281 280 280 279 278 276 275 273 272 270 271
292 292 293 293 293 293 293 292 290 289 289 288 288 288 288 287 287 288 288 288 288 288 288 287 287 288 287 288 289 289 288 289 291 292 293 294 292 289 288 287 287 287 286 286 286 285 285 285 284 284 283 282 284 287 286 284 279 278 278 277 277 277 279 280 285 286 285 285 285 285 285 285 285 285 284 284 281 278 276 274 273 273 271 270 269
291 291 292 292 292 292 292 292 290 289 289 288 288 288 288 288 288 288 288 288 288 287 287 287 287 287 287 288 289 288 288 287 290 291 292 293 290 288 288 287 286 286 285 285 285 284 284 284 284 283 283 282 285 287 287 283 279 278 277 277 276 276 277 279 282 284 286 285 285 285 285 285 285 285 285 284 283 280 276 274 274 272 272 271 271
290 291 291 292 292 292 292 291 291 289 289 289 288 288 287 288 287 287 287 287 287 287 287 287 286 287 287 287 287 288 287 286 289 290 291 292 290 287 287 287 286 285 285 284 283 283 283 284 284 283 283 283 286 288 288 284 280 278 278 277 277 277 278 279 281 281 281 281 281 282 282 283 283 282 282 284 284 281 278 276 272 272 272 270 269
290 290 291 291 291 291 291 290 290 289 289 289 288 288 288 287 287 287 287 287 287 287 287 287 286 286 286 286 286 286 285 285 286 290 291 291 291 287 287 287 286 286 285 284 282 282 282 283 284 285 285 286 287 288 288 286 280 279 278 278 277 278 279 280 281 281 280 279 279 279 278 279 278 278 278 280 281 281 278 276 273 273 272 270 269
288 289 290 291 291 291 291 290 289 289 289 288 288 287 288 288 287 287 287 287 286 286 286 286 286 285 285 285 286 286 286 286 286 289 290 291 291 289 287 287 287 286 285 284 284 284 283 282 282 285 287 287 287 288 288 288 285 280 279 279 279 279 282 279 280 281 278 277 276 276 276 275 276 276 276 276 276 276 277 277 275 274 273 270 269
288 289 290 290 290 290 289 289 289 289 288 287 287 287 287 287 287 287 287 287 286 286 286 286 286 285 285 285 286 286 286 286 286 287 289 290 291 291 287 287 287 286 285 285 284 283 283 283 282 284 287 287 287 288 289 289 287 282 281 284 285 285 280 279 278 278 276 275 274 275 274 274 274 274 274 274 274 275 275 276 276 274 274 273 272
288 289 289 290 289 289 289 288 288 288 287 287 287 287 286 286 286 286 286 286 286 285 285 285 285 285 285 285 285 285 285 285 286 286 287 289 290 291 290 288 289 286 286 285 284 284 283 283 283 284 286 287 287 288 288 289 288 284 285 285 285 285 281 276 277 277 276 275 275 274 274 274 273 273 273 273 274 274 274 274 275 274 273 274 274
287 288 288 288 288 288 288 288 288 288 287 287 287 286 286 286 286 286 286 286 286 285 285 285 285 285 285 285 285 285 285 285 285 285 286 288 289 290 291 290 289 286 285 285 285 284 283 282 282 284 285 286 287 288 288 288 286 287 287 286 286 284 277 277 277 277 276 275 274 274 274 274 273 273 273 273 273 274 273 273 273 274 273 272 272
287 288 288 288 288 287 287 287 287 287 287 287 287 286 286 286 286 286 286 286 286 286 285 285 285 285 285 285 285 285 285 285 285 285 285 285 288 289 290 290 290 290 286 285 283 284 284 285 285 285 285 286 287 288 288 288 288 288 287 286 284 280 277 276 276 275 275 274 274 274 274 275 274 274 274 274 273 273 272 272 272 272 271 271 271
287 287 287 287 287 287 287 286 286 286 287 287 287 287 286 286 286 286 286 286 286 286 285 285 285 284 284 284 284 285 285 284 284 283 283 283 284 287 288 288 287 287 287 285 283 284 285 285 286 285 284 284 284 284 284 284 286 287 286 284 281 279 277 276 276 275 274 275 274 274 275 274 274 274 274 273 272 271 271 270 270 270 270 269 269
286 286 287 287 287 287 287 287 286 286 286 287 287 287 287 286 286 286 286 286 285 285 285 285 284 284 284 284 284 284 283 282 280 278 277 277 277 279 280 280 284 284 282 278 281 280 282 283 282 283 282 284 284 283 283 283 281 283 282 281 280 278 275 275 275 275 275 275 275 275 275 273 273 272 271 271 271 271 271 271 270 270 270 269 269
286 286 286 286 286 287 286 284 285 286 286 286 286 286 286 286 286 286 286 286 285 285 285 285 285 285 284 284 281 277 277 275 276 277 275 275 275 274 275 277 276 276 277 275 274 276 277 281 281 278 278 277 278 277 277 277 278 279 279 280 280 276 276 277 277 275 276 276 275 273 273 272 271 271 271 271 271 271 271 270 270 269 270 269 269
284 284 285 285 285 285 286 285 286 286 286 286 286 287 286 286 286 286 286 287 287 286 285 285 284 282 280 278 277 276 274 274 277 281 279 282 279 276 275 277 276 275 279 282 276 275 275 274 275 275 275 275 275 275 275 275 275 275 276 276 276 276 276 275 274 275 275 274 273 273 272 272 271 271 271 270 270 270 271 269 270 269 270 270 268
283 283 284 283 284 284 284 285 285 285 286 286 285 283 283 285 286 286 283 284 285 286 286 279 279 277 276 275 276 276 276 274 280 285 285 285 286 285 283 283 283 279 281 285 280 273 273 272 272 272 273 273 273 274 274 274 275 274 274 277 276 275 275 275 275 275 274 273 273 273 272 272 271 271 270 270 270 270 270 271 269 270 267 269 268
282 282 282 282 282 282 283 283 283 284 284 283 282 281 278 278 284 284 283 281 283 284 285 284 283 280 277 273 276 283 282 284 285 285 286 286 287 287 286 286 286 285 285 281 274 274 272 272 272 272 273 273 273 274 273 274 275 275 275 275 275 275 275 275 275 275 274 273 273 272 272 271 271 271 270 270 269 269 269 270 269 269 268 268 268
282 281 281 280 280 280 281 281 281 281 280 279 278 278 278 277 276 282 283 283 283 284 284 284 284 284 284 280 275 272 280 283 284 284 285 286 286 287 287 287 286 286 286 285 275 273 272 272 272 272 272 273 274 273 274 274 274 275 274 273 273 274 274 274 275 274 274 273 272 272 271 271 271 270 270 270 270 269 269 268 268 267 268 269 268
281 280 280 279 279 278 278 279 279 279 278 277 276 277 277 277 277 274 276 282 283 283 283 283 283 283 283 283 284 283 282 283 283 284 284 285 286 286 286 287 286 287 286 280 273 273 271 271 272 272 272 273 273 273 274 274 274 274 274 274 274 274 274 274 275 273 273 273 272 272 271 271 271 270 270 270 269 268 269 268 269 268 268 267 268
281 280 280 279 279 278 278 278 278 277 277 277 276 276 276 276 276 276 275 272 274 279 281 283 283 283 283 283 283 283 283 283 283 283 284 284 284 284 284 282 285 286 284 278 275 274 272 271 272 273 272 273 273 273 274 274 274 274 274 274 274 274 273 272 272 272 272 272 272 272 271 271 271 270 270 270 269 269 268 269 268 268 268 268 267
278 276 276 277 278 278 277 276 276 276 276 276 275 275 275 274 275 275 275 275 274 273 271 273 280 282 277 280 282 283 283 282 283 283 283 283 283 283 283 276 276 275 276 276 277 277 276 275 274 273 273 273 273 273 273 273 273 274 274 273 273 273 272 271 271 271 271 272 271 271 271 271 270 270 270 269 269 268 268 268 269 269 268 268 268
278 277 277 276 276 276 276 276 276 276 276 275 275 275 274 274 274 273 272 272 272 271 270 270 271 276 280 280 281 282 282 282 282 282 282 283 283 283 273 271 268 271 273 272 274 275 277 277 277 276 274 273 273 273 274 274 274 274 274 273 273 273 272 272 271 270 270 270 270 270 270 269 269 269 269 269 269 269 269 269 269 269 269 268 269
277 277 276 276 276 276 275 275 275 276 276 274 274 274 273 273 272 272 272 272 271 269 269 267 270 271 274 274 277 280 281 281 281 281 282 282 283 277 270 270 271 271 272 272 272 273 273 273 273 273 274 274 274 274 274 274 274 274 275 274 274 273 273 273 272 271 270 270 270 269 269 269 268 268 268 267 268 268 269 269 269 269 269 269 269
277 277 276 276 275 275 275 275 275 275 274 273 273 274 273 272 272 272 272 271 271 270 268 268 272 268 269 269 274 273 274 278 278 277 277 277 274 270 270 271 271 271 272 271 271 271 272 272 272 273 273 273 275 275 275 275 275 275 275 275 274 274 275 274 273 272 270 270 269 269 269 268 268 268 268 268 268 268 268 269 268 268 268 269 269
275 275 276 276 276 275 274 274 274 273 273 273 272 272 272 272 271 270 270 269 269 268 268 267 267 267 267 268 267 270 270 268 268 267 269 270 270 270 269 270 271 271 271 271 271 272 271 272 273 274 275 275 275 276 276 276 277 276 276 276 275 274 274 274 273 272 271 270 270 270 269 269 269 269 269 268 268 268 268 268 268 268 268 268 268
274 274 275 275 274 274 273 273 273 273 272 272 271 271 271 271 271 270 269 269 268 267 267 268 267 266 267 266 268 269 268 268 267 268 269 270 270 269 267 268 269 269 270 271 272 273 274 275 276 277 277 278 278 277 278 277 277 277 277 276 275 275 275 274 273 273 272 271 270 270 269 269 269 269 269 268 268 268 268 268 268 268 268 268 268
274 273 272 274 273 273 272 272 271 271 271 271 271 271 271 270 270 269 269 268 267 267 267 266 265 265 268 272 276 274 268 268 269 269 270 269 269 267 267 267 268 267 268 269 270 271 272 274 275 276 276 277 277 277 277 277 277 276 276 275 275 274 274 274 273 273 272 271 270 270 269 269 269 269 268 268 269 269 268 268 268 268 268 268 268
273 273 273 272 272 272 271 270 270 270 270 270 270 270 270 270 269 269 269 268 267 267 266 266 266 266 272 275 275 275 271 269 269 269 268 266 266 266 267 266 266 265 266 265 267 267 268 269 269 269 270 271 273 274 275 275 275 275 275 275 275 274 274 274 273 273 272 272 271 270 270 269 269 269 269 269 268 268 268 267 267 267 267 267 267
273 272 272 271 271 271 271 270 270 270 270 270 269 269 269 269 268 268 268 268 267 268 268 267 266 267 270 274 273 273 266 264 268 267 266 266 265 266 264 263 263 264 263 264 264 265 265 265 266 266 267 268 268 270 272 272 273 273 273 274 274 274 273 273 273 272 272 271 271 271 270 270 270 269 269 268 268 268 267 267 266 267 267 267 267
272 271 271 270 270 270 269 270 270 270 269 269 269 269 268 268 268 267 268 268 269 268 268 268 268 267 265 266 268 267 265 265 264 263 264 265 264 264 262 261 262 263 263 264 264 264 265 265 265 266 265 265 266 265 267 268 270 270 271 271 271 272 272 272 272 272 272 271 271 270 270 269 269 269 268 267 267 266 266 266 266 266 266 266 266
271 270 270 269 269 269 269 269 269 269 269 269 268 269 269 269 269 269 269 269 269 268 268 266 265 265 265 265 265 265 263 261 264 263 262 262 262 261 260 261 262 263 263 263 263 263 263 264 264 263 264 264 264 265 265 266 266 268 269 269 269 270 271 271 272 272 272 271 270 270 270 269 268 268 268 267 267 266 266 266 265 265 265 265 265
270 269 269 269 268 268 268 269 268 268 269 269 269 269 269 269 268 268 268 268 267 267 266 266 265 265 264 263 263 263 260 259 260 261 263 261 261 261 260 260 261 261 261 262 262 262 263 263 263 262 263 263 263 263 263 263 264 265 265 266 268 268 269 270 271 271 271 271 270 270 269 269 268 268 267 267 267 266 266 266 265 265 265 265 265
269 269 268 268 268 268 268 268 269 269 269 268 268 268 268 267 267 267 267 267 267 266 265 264 263 262 261 260 260 259 261 261 260 260 260 260 260 259 259 259 259 259 260 261 260 261 261 262 261 262 262 262 262 263 263 263 263 264 264 265 266 267 267 268 268 268 269 269 270 269 269 269 268 268 267 267 266 266 265 265 265 264 265 265 264
268 268 268 268 268 268 268 268 267 267 268 268 268 267 267 267 267 266 266 265 265 264 263 261 260 260 261 260 261 260 261 260 260 261 260 260 259 258 258 258 260 259 259 260 260 260 261 260 261 261 261 262 262 263 263 262 262 262 262 263 264 265 265 265 266 267 267 268 268 268 268 268 268 268 267 266 266 265 265 264 264 264 264 264 264
268 268 268 268 267 267 267 267 267 267 267 267 266 266 266 265 265 264 264 264 263 262 262 261 259 260 259 260 261 260 260 261 258 258 258 258 258 258 259 259 260 260 260 260 260 260 260 260 260 261 261 262 263 263 264 264 263 262 262 261 263 264 265 265 265 265 265 266 266 267 267 267 267 266 266 266 266 265 265 265 264 264 264 264 264
267 267 267 267 267 267 267 267 267 266 266 266 265 264 264 264 264 263 263 262 262 261 259 260 260 259 259 259 260 259 259 258 259 258 258 258 258 259 259 258 258 258 258 258 258 259 259 258 259 260 262 263 263 263 263 263 262 262 261 263 264 265 265 266 266 265 265 265 266 266 266 265 265 266 266 266 265 265 264 264 264 264 263 263 263
265 265 265 265 265 265 265 265 265 265 264 264 263 263 263 262 262 262 262 261 260 260 259 257 257 259 258 258 259 258 258 258 258 257 257 257 257 258 258 258 258 257 257 257 257 258 258 259 260 261 262 262 262 262 261 262 261 262 263 265 265 265 265 264 264 264 265 265 265 265 265 264 264 264 264 264 265 264 264 263 263 263 263 262 262
Wind_Speed
6 6 6 5 5 5 5 4 5 4 4 4 4 4 4 4 5 5 4 5 5 5 6 7 7 7 8 8 8 7 7 6 6 8 10 8 8 10 10 10 11 9 7 7 6 8 11 12 10 8 8 8 8 7 7 7 6 5 5 5 6 6 8 7 8 3 1 0 3 4 5 7 5 5 5 3 3 3 3 2 1 0 1 3 4
6 5 5 4 5 5 5 4 4 4 4 3 4 3 2 2 2 1 4 4 4 6 6 6 6 7 7 7 7 7 7 8 8 8 7 7 8 6 8 10 10 7 7 7 6 6 4 4 5 7 9 10 8 9 9 8 8 7 6 6 6 5 3 6 5 7 6 1 3 3 4 4 4 2 6 4 3 1 1 1 1 1 2 4 4
4 4 4 4 4 4 3 4 3 4 4 3 3 2 2 1 0 1 2 2 2 3 4 5 5 5 6 6 6 5 6 7 8 8 9 9 9 7 5 6 8 9 8 8 8 7 7 7 8 6 5 5 6 7 7 8 7 8 7 5 6 5 4 4 5 6 7 4 4 6 5 4 5 4 4 4 3 2 1 0 1 2 2 3 4
5 4 4 4 3 3 3 2 2 2 3 3 3 1 0 1 2 1 2 2 2 2 2 4 4 4 4 5 6 6 4 4 5 5 7 7 8 9 9 9 9 10 11 11 10 10 11 10 9 9 9 9 8 6 4 3 6 6 6 6 6 7 5 4 4 5 4 6 4 6 5 6 2 1 4 3 3 2 2 0 0 2 2 2 2
5 5 5 5 3 3 2 1 1 1 1 1 1 1 1 1 2 2 2 3 3 2 3 2 4 4 4 5 6 6 7 7 7 7 7 6 7 8 8 8 8 8 9 10 10 11 9 11 10 9 8 7 4 4 6 7 7 7 7 6 6 6 4 4 4 3 6 7 5 2 3 2 1 2 4 5 1 1 1 1 1 1 2 2 2
4 4 4 4 3 2 1 1 1 1 0 1 0 1 1 1 2 2 1 2 3 4 4 4 4 4 4 5 5 6 6 6 7 7 7 7 6 7 8 8 8 7 6 5 7 10 12 11 10 11 11 12 12 10 9 11 8 7 7 6 6 6 6 4 4 4 5 5 7 4 1 4 2 1 2 4 4 2 2 1 0 1 0 3 3
4 4 3 3 3 4 3 2 1 1 0 0 0 1 1 1 1 1 1 1 1 2 3 3 3 3 4 4 4 5 5 4 5 6 6 6 6 6 7 7 7 7 7 7 6 6 6 7 9 10 12 12 11 11 11 10 9 10 10 9 7 7 7 6 6 6 6 6 2 3 5 1 2 3 1 3 3 3 5 2 3 1 1 1 4
5 5 5 5 5 5 4 3 2 3 2 3 2 2 3 4 4 3 1 1 1 2 3 3 3 2 3 3 3 3 4 4 4 4 4 5 5 5 4 5 5 5 5 5 5 6 7 7 8 9 10 10 10 10 9 10 7 7 5 6 7 8 8 7 6 6 6 6 5 5 2 4 1 0 2 3 3 1 3 4 6 4 1 1 2
7 7 7 7 6 5 4 4 4 5 5 5 5 5 5 4 4 4 3 3 3 3 3 3 3 3 2 3 3 3 4 5 4 4 5 5 4 5 5 6 6 6 5 4 4 4 4 4 5 5 6 7 8 6 8 7 8 8 6 6 8 8 7 6 6 5 5 5 4 3 5 4 5 6 5 6 10 7 4 4 3 1 0 2 3
9 8 8 7 6 6 6 5 5 4 4 4 4 4 3 3 3 3 3 3 3 2 2 2 3 4 4 3 2 3 4 3 5 8 7 6 5 4 3 4 5 5 6 5 5 5 6 5 4 7 9 9 9 9 10 10 10 9 10 10 10 8 8 7 6 6 6 7 6 6 6 7 7 8 8 6 3 4 5 4 4 1 1 2 2
8 8 8 7 7 6 6 6 5 5 5 4 3 4 4 4 3 3 3 2 2 2 2 2 3 3 3 3 3 3 4 4 5 7 8 8 5 4 5 4 4 4 4 5 7 6 3 1 1 3 4 5 7 9 10 11 11 9 9 11 10 12 10 6 5 6 7 7 4 5 7 8 8 6 7 5 5 6 5 4 3 2 1 0 2
9 8 7 7 7 7 6 5 6 5 5 5 5 5 4 4 4 3 3 3 2 2 2 3 2 2 2 2 3 3 2 3 4 6 7 7 6 4 3 4 4 3 3 4 2 2 2 2 1 2 3 4 4 5 7 9 10 9 9 9 7 5 3 6 8 6 5 6 6 8 7 9 7 7 6 6 6 5 4 5 5 5 4 4 3
8 7 7 7 7 6 6 6 6 6 5 5 5 5 5 4 4 4 4 3 3 3 3 2 1 1 2 3 3 2 2 3 3 5 6 6 6 4 2 2 3 3 3 3 3 3 3 3 2 1 2 4 4 3 4 5 7 7 7 7 7 7 5 1 0 5 8 8 8 8 10 7 6 8 8 7 6 7 5 5 5 5 4 5 7
8 8 7 7 7 7 7 7 7 6 5 5 5 5 5 5 4 4 4 3 4 3 3 3 3 3 3 3 3 2 3 3 4 5 5 5 6 4 2 2 2 2 2 2 2 3 4 5 5 4 2 3 3 4 4 4 5 4 4 4 5 7 7 7 6 7 9 9 9 10 8 6 7 5 6 8 9 8 8 7 6 6 7 7 4
8 8 8 7 7 8 8 7 7 6 5 5 5 5 5 4 5 5 4 5 5 5 5 4 4 3 3 3 3 2 2 3 4 5 5 6 7 6 4 4 4 3 3 3 3 5 5 6 6 6 5 5 5 7 7 7 6 6 6 6 7 6 6 6 6 5 6 6 7 6 5 6 5 6 8 7 8 6 7 6 7 6 3 1 2
8 7 8 8 9 8 8 8 7 6 6 5 6 5 5 6 7 5 4 3 3 3 2 3 4 3 4 4 3 3 2 5 7 7 8 9 10 7 7 7 7 6 5 5 6 6 7 7 7 7 7 7 8 12 10 9 8 9 9 7 7 6 7 4 5 5 5 5 5 6 5 6 7 9 9 8 7 7 6 5 5 4 4 3 5
10 10 10 9 9 9 9 9 8 7 7 7 6 6 6 5 4 4 5 5 4 4 4 3 3 4 4 4 5 4 4 4 7 8 10 11 9 6 6 5 6 7 7 7 7 7 7 7 7 7 8 8 11 15 15 13 10 11 10 10 9 7 8 4 7 9 8 8 8 9 10 11 13 14 14 14 10 9 7 6 7 6 6 6 4
10 10 11 10 10 9 9 9 9 8 8 8 8 7 6 4 5 5 6 6 5 5 4 3 3 3 3 3 3 3 1 2 4 4 6 9 7 5 4 4 4 5 4 4 4 5 6 10 9 8 9 9 14 17 18 14 11 12 11 11 10 10 8 5 4 5 10 10 10 11 12 13 14 15 16 15 16 12 9 10 6 8 8 7 6
11 13 12 10 9 9 9 9 9 8 9 8 7 7 7 7 5 5 4 4 4 3 3 3 2 1 0 0 0 1 1 2 1 2 4 6 5 3 3 2 2 2 3 3 2 3 4 7 11 10 9 10 17 17 18 14 10 10 11 10 11 11 10 9 9 9 8 7 6 7 6 9 8 7 9 16 16 13 9 6 6 9 8 7 6
11 7 7 8 8 8 8 9 8 8 8 7 6 6 5 4 5 5 4 4 4 4 3 3 3 1 1 1 1 1 1 1 1 2 3 5 6 3 2 3 4 4 4 4 3 3 4 5 8 11 13 14 16 17 16 15 10 8 7 9 9 13 7 10 10 9 9 9 7 6 6 4 4 3 3 5 7 8 8 6 7 7 7 6 7
9 10 8 8 9 9 8 8 8 7 6 6 5 4 4 5 5 5 5 4 4 4 4 4 4 3 2 2 2 1 2 2 2 5 5 6 7 7 4 4 4 4 4 5 5 5 5 6 5 10 15 15 15 17 17 18 14 8 9 11 11 3 8 8 9 8 7 6 5 5 5 4 4 4 5 5 5 4 5 7 7 7 7 7 7
9 10 10 9 8 8 7 6 7 7 5 6 7 5 4 4 5 6 5 5 6 5 4 4 4 4 3 2 2 2 3 4 2 5 5 6 7 9 5 5 4 4 4 4 4 4 6 5 5 8 14 14 15 16 18 17 18 11 10 11 5 9 9 5 5 6 5 5 5 6 6 6 6 6 6 7 7 7 6 6 7 7 7 7 8
9 9 10 9 8 8 7 8 7 6 7 7 8 7 6 6 5 5 6 6 6 6 5 5 4 4 2 2 2 2 2 2 5 3 4 5 6 8 9 5 6 5 5 6 6 6 4 4 5 8 13 14 14 15 16 17 15 11 13 11 9 9 6 4 5 6 6 6 7 8 7 7 8 8 8 8 7 7 7 7 6 6 6 6 7
9 9 9 9 8 8 8 8 7 7 8 7 7 8 7 6 6 5 5 6 5 5 4 4 4 3 2 1 1 1 1 2 4 5 4 5 6 6 8 8 6 4 4 4 3 4 4 5 6 9 11 12 13 15 16 15 10 13 13 11 9 8 5 5 5 6 6 6 7 8 8 8 7 8 9 8 7 7 7 6 6 6 6 5 5
10 10 10 9 9 8 8 7 8 7 7 8 8 8 8 8 7 5 6 5 5 5 4 4 4 4 3 3 3 2 3 3 3 4 6 5 5 6 6 7 8 7 4 3 3 3 5 6 7 9 10 11 12 13 11 13 13 9 10 11 10 6 6 5 5 4 6 8 8 7 6 7 7 6 2 3 3 3 3 3 3 4 4 3 4
11 11 10 10 10 10 10 8 8 8 8 7 8 7 9 8 7 7 6 5 5 5 5 5 4 5 5 4 4 4 4 4 4 3 3 4 4 5 6 6 7 7 7 5 6 6 6 8 9 10 11 10 7 5 5 6 10 12 11 9 6 6 5 5 5 6 7 6 6 7 6 3 4 3 2 3 5 6 5 5 5 5 4 4 4
11 11 11 10 10 10 11 9 9 8 8 7 6 7 7 7 7 7 6 6 6 5 5 6 5 5 5 5 5 4 4 4 4 3 2 2 3 2 2 3 4 4 3 2 2 2 3 3 3 4 5 7 8 6 5 4 4 5 5 6 6 6 5 6 7 7 7 6 7 6 4 3 1 3 3 4 5 4 5 5 5 5 2 3 4
12 12 12 10 10 10 10 11 11 9 8 8 8 8 6 7 7 8 8 8 8 7 7 7 7 6 5 5 5 4 4 4 4 5 4 4 3 2 2 2 2 3 3 3 2 1 1 0 1 0 0 1 2 2 3 2 2 3 4 5 6 4 5 5 5 5 6 6 4 1 2 3 4 5 5 6 6 5 5 6 5 5 4 4 3
10 11 10 10 10 9 9 10 9 9 9 7 6 6 8 7 6 5 3 4 4 5 5 4 3 3 5 5 5 3 3 4 6 6 6 6 6 5 4 5 3 3 5 5 3 1 1 1 1 1 1 2 2 3 3 3 4 3 3 3 3 4 5 6 7 8 7 5 6 6 6 5 5 4 5 5 6 5 4 6 5 6 4 5 7
11 11 10 10 10 10 9 9 8 8 8 8 8 5 2 4 4 5 3 2 3 4 5 5 5 5 4 3 3 5 5 5 5 5 6 7 8 9 7 7 6 5 5 8 6 3 2 3 3 4 4 3 5 5 5 5 6 5 5 5 5 6 6 7 7 7 6 7 7 7 7 5 6 6 6 6 5 4 5 6 6 5 7 7 6
10 9 10 10 11 10 10 9 9 8 7 8 7 8 6 2 4 5 6 5 6 6 6 6 7 5 6 3 1 2 2 1 2 2 3 5 6 7 7 7 8 8 8 5 2 5 4 5 5 5 4 5 5 6 6 6 6 6 6 6 5 6 6 7 7 6 6 6 6 6 5 6 6 5 7 6 6 5 5 5 7 6 6 6 7
12 11 10 9 11 9 9 9 9 9 8 7 8 8 8 8 6 7 8 7 6 6 7 6 4 4 3 3 3 1 3 3 1 1 1 1 2 3 5 6 7 8 9 9 3 3 4 5 5 5 4 4 5 5 5 6 6 6 5 5 6 6 7 8 7 6 6 6 6 6 6 6 6 6 6 6 6 6 6 7 7 7 7 8 9
11 10 9 10 9 9 9 9 9 9 10 10 8 8 9 9 9 7 4 7 7 5 4 4 4 3 2 2 2 2 1 1 2 3 2 1 2 2 3 4 5 7 7 4 2 3 2 3 4 4 3 5 5 5 5 5 6 6 6 6 7 7 7 7 4 5 7 7 6 7 7 7 7 6 6 6 7 8 7 8 8 6 6 6 9
10 11 11 12 11 9 9 9 9 8 7 7 8 8 8 8 8 8 9 7 4 5 4 4 4 3 3 3 3 2 2 2 2 2 2 2 2 2 3 2 4 6 4 4 2 3 2 3 4 4 5 5 5 5 6 6 6 6 6 6 7 6 6 4 6 7 7 7 8 8 7 7 6 7 7 6 7 7 7 8 8 8 10 11 11
9 9 12 10 9 9 8 8 8 8 8 8 8 8 8 7 8 8 8 9 8 8 4 3 3 4 3 4 5 6 6 5 4 3 3 1 1 2 1 0 1 1 2 0 3 3 4 4 4 5 5 5 6 6 6 6 6 6 6 7 6 6 5 6 7 7 7 7 8 8 8 8 7 7 7 8 8 8 9 9 9 10 11 10 9
10 9 9 9 8 8 8 7 7 8 8 8 7 8 8 8 8 7 7 7 8 8 4 2 1 2 5 5 6 7 7 7 6 5 4 3 1 1 1 0 1 1 2 2 1 2 2 4 4 5 5 6 6 6 6 6 7 7 7 7 7 7 7 7 7 7 8 8 8 8 7 7 7 7 7 8 10 10 9 10 10 10 10 10 9
10 9 9 8 8 8 8 8 7 8 7 8 8 8 7 7 7 7 7 8 7 5 7 5 5 5 5 5 4 5 7 7 6 6 6 4 4 3 2 3 3 2 2 3 2 3 4 5 4 5 5 5 6 6 6 6 6 7 6 7 7 7 7 7 8 7 7 7 8 7 7 8 7 7 8 9 9 9 9 10 9 9 10 11 9
8 9 9 9 9 9 9 8 8 9 8 7 7 8 8 7 8 7 8 8 7 7 7 5 5 6 5 1 3 2 3 5 6 7 7 7 6 3 1 1 1 2 3 2 3 3 5 6 4 5 6 5 6 6 6 6 6 7 7 7 7 7 8 8 7 7 7 7 7 7 7 8 7 7 7 9 10 9 9 9 9 9 10 11 9
7 10 13 13 10 9 8 9 8 8 7 7 7 7 8 8 7 7 7 7 7 7 7 6 6 6 3 1 2 2 5 4 5 3 4 5 4 3 2 1 0 1 1 2 2 3 4 5 5 5 5 5 6 6 6 7 6 7 7 7 7 6 6 6 7 7 7 7 7 7 7 7 7 7 8 9 10 9 9 10 9 9 10 10 10
9 8 9 12 9 8 8 7 7 7 7 8 7 6 7 7 7 8 7 8 7 7 7 6 6 4 2 1 1 3 5 3 3 2 2 3 3 4 3 3 2 2 2 4 3 3 4 4 4 4 5 5 5 5 5 6 6 6 6 6 7 7 7 6 7 7 7 7 7 7 7 8 8 7 8 9 9 9 10 10 10 9 9 10 9
8 8 8 8 9 8 7 7 7 7 7 7 7 7 7 7 7 7 7 7 7 7 6 7 5 2 2 4 5 6 5 3 2 2 2 1 1 2 2 2 2 2 3 3 3 3 4 4 4 5 5 5 5 5 5 5 6 6 6 6 6 7 7 7 6 6 7 7 7 7 7 8 7 7 9 9 9 10 9 8 8 8 9 9 9
9 9 9 8 9 8 8 7 7 7 7 7 7 7 7 7 7 7 7 6 7 7 7 6 4 2 5 8 7 8 6 4 4 4 2 2 2 2 2 2 2 3 4 4 5 5 4 5 5 5 5 5 5 6 6 6 6 6 6 6 7 7 7 7 6 7 7 7 7 7 7 7 8 9 10 8 7 7 8 8 8 8 8 8 8
9 9 9 8 8 8 8 8 7 8 7 7 6 6 6 7 6 7 7 7 6 6 6 6 4 4 5 6 7 6 4 4 4 3 2 2 2 2 3 4 4 4 3 3 4 4 4 4 5 4 4 5 5 5 6 6 7 7 7 7 7 7 7 7 6 6 6 7 7 8 8 8 8 8 8 7 8 7 8 8 8 8 8 8 8
9 9 8 8 8 7 7 7 7 6 6 7 7 7 7 6 6 6 6 6 6 5 5 5 5 5 3 5 5 5 4 4 4 3 3 3 3 3 3 3 4 4 4 4 4 4 5 5 5 5 5 5 5 4 5 5 5 6 7 8 8 8 8 7 7 6 6 7 7 7 7 7 7 7 7 6 6 8 8 8 8 8 8 8 8
8 9 9 8 7 7 7 5 6 6 7 6 6 6 5 6 6 5 5 6 6 5 5 5 4 4 5 3 4 3 4 3 3 4 3 2 2 3 3 4 3 5 4 5 5 4 4 5 5 4 5 5 5 5 5 5 5 5 6 7 8 8 8 8 7 6 6 7 7 7 7 7 7 6 7 6 7 8 8 8 8 8 9 8 8
8 8 8 8 8 6 7 6 6 6 6 6 7 6 5 5 5 5 5 6 6 5 5 5 4 3 4 3 2 4 2 2 2 1 3 2 2 3 3 3 3 4 3 3 4 4 5 4 5 4 5 5 5 5 6 5 5 5 5 5 6 7 8 8 8 8 8 7 7 7 7 7 7 6 7 7 7 7 8 8 8 8 8 9 9
7 7 7 7 7 7 6 6 6 6 6 5 5 6 6 5 5 5 5 5 5 5 5 4 4 3 3 2 2 1 2 1 1 1 1 1 1 2 2 2 2 2 3 4 3 3 4 4 4 5 5 5 5 5 6 5 5 5 5 5 6 7 7 7 8 8 9 8 8 8 8 8 7 6 7 7 7 7 8 8 8 9 9 9 9
7 6 6 6 6 7 6 6 6 6 5 5 5 5 5 5 5 5 4 5 5 5 5 4 5 3 3 1 1 1 1 1 1 2 1 1 2 2 2 2 2 3 2 3 3 4 4 4 5 5 5 5 5 5 5 5 5 5 5 5 6 6 8 9 7 8 7 8 8 9 9 9 8 7 7 7 7 7 8 8 7 8 8 8 8
6 6 6 6 6 6 6 6 5 6 6 6 6 6 5 5 5 5 4 4 4 4 4 4 2 2 2 1 1 1 2 3 1 1 1 1 2 3 3 3 3 4 4 3 4 4 4 5 5 5 5 5 5 6 6 6 6 5 5 5 7 12 13 13 10 8 10 9 8 9 9 9 9 8 8 7 7 7 8 8 7 8 8 8 8
6 5 6 6 5 5 4 4 5 5 4 5 7 6 5 5 5 4 4 4 4 4 3 3 2 1 2 1 3 1 1 1 1 1 1 1 2 1 2 2 3 2 3 3 4 4 4 3 4 4 4 5 5 6 6 6 6 7 6 8 14 16 14 14 14 13 10 7 8 7 8 9 9 8 8 8 8 8 8 8 8 7 8 8 9
5 5 5 5 6 6 7 6 4 4 4 6 6 7 6 5 4 4 4 4 4 3 2 2 2 2 2 1 2 1 0 0 0 1 1 1 1 1 1 2 2 2 3 3 3 3 4 3 3 4 5 6 6 6 6 6 5 7 12 17 18 15 14 13 10 11 14 11 8 8 8 9 9 9 8 8 8 8 8 8 8 8 8 8 8
Wind_Direction
192 207 192 205 196 205 210 203 212 200 203 198 205 218 219 217 221 223 210 218 205 208 206 201 197 197 197 203 205 205 209 219 236 229 225 240 241 221 216 216 220 219 204 209 219 213 206 194 184 175 162 168 178 173 165 165 164 170 169 168 184 183 174 178 192 195 318 84 132 159 155 140 161 172 165 175 146 127 119 135 135 172 282 284 285
195 196 190 185 195 198 203 199 194 177 186 178 184 190 189 193 213 174 207 236 191 207 210 207 201 197 198 201 205 205 208 218 222 222 230 228 228 230 220 209 215 206 189 190 181 174 174 171 175 179 186 182 170 178 175 170 177 174 183 176 185 184 182 147 182 167 181 178 79 101 130 151 148 199 167 169 194 118 112 70 104 179 272 280 280
172 160 160 161 172 177 176 192 181 187 192 200 202 211 235 260 278 210 230 253 251 202 205 200 200 200 202 208 211 207 211 220 223 223 227 226 228 227 217 214 205 192 188 190 192 188 181 183 181 168 157 165 182 184 176 183 177 181 180 164 165 187 206 165 138 188 167 194 166 150 164 175 160 182 186 169 163 136 121 11 345 315 263 265 270
178 166 170 181 185 171 185 198 181 205 205 225 222 250 320 345 336 308 265 244 244 257 216 206 202 202 208 214 216 217 227 247 244 236 232 234 234 224 213 211 209 204 201 199 194 187 188 178 180 178 178 185 186 175 154 150 172 177 175 181 173 183 194 183 182 151 179 149 203 173 181 154 210 150 142 132 128 116 136 91 47 264 280 288 277
160 175 177 193 202 193 212 145 156 333 310 349 330 337 353 355 3 331 301 287 257 247 269 250 226 215 223 232 230 227 226 226 229 234 232 227 225 222 218 217 216 215 210 202 198 194 187 181 180 174 168 172 157 167 175 183 191 186 191 177 178 171 168 174 175 141 148 173 165 198 155 135 150 144 144 138 86 93 60 145 275 273 278 263 290
153 152 156 168 191 187 216 109 119 114 104 56 12 25 34 20 321 310 347 264 262 240 228 244 231 240 242 241 244 245 241 235 229 230 229 224 218 214 209 208 209 210 211 213 207 195 184 186 175 175 175 182 191 194 189 193 182 189 191 180 168 155 161 155 151 144 153 165 159 147 174 156 116 110 164 145 145 183 273 299 233 239 338 342 329
157 149 148 155 176 199 195 180 155 163 127 227 332 15 359 345 9 302 267 201 252 282 280 254 247 220 240 241 240 241 245 242 238 235 233 224 217 212 208 207 204 201 199 189 188 205 204 189 180 183 188 192 187 188 192 195 190 197 192 177 164 157 163 172 162 158 159 147 147 153 147 154 134 175 191 162 160 173 201 242 275 269 19 2 307
166 171 174 190 196 203 192 170 174 189 206 218 235 249 256 260 254 235 240 266 229 225 232 221 249 208 236 234 237 235 237 236 237 237 229 219 210 214 210 206 202 205 202 201 201 203 200 194 187 189 194 194 191 192 182 190 187 188 176 159 161 162 170 166 165 165 163 167 168 163 156 152 120 105 91 122 136 271 193 184 228 228 236 319 266
176 180 185 195 198 187 181 181 192 198 199 199 200 205 207 209 220 228 216 213 201 205 203 204 220 225 222 214 224 213 212 223 219 214 214 218 210 208 201 194 190 193 192 196 201 207 210 196 185 188 200 205 200 188 194 182 168 173 177 171 170 173 166 170 173 167 166 161 159 114 143 177 187 166 170 187 203 198 154 151 224 202 211 321 289
178 184 190 193 184 180 184 188 185 185 179 189 192 179 169 165 166 174 195 207 212 201 191 189 197 215 219 225 212 207 219 228 220 212 208 205 205 205 188 188 189 190 187 189 196 197 198 198 198 196 200 200 192 183 184 185 192 189 176 177 177 174 172 168 174 181 168 178 194 168 177 206 199 197 199 206 137 103 140 161 204 245 27 290 282
185 185 192 184 180 179 181 183 181 184 185 178 165 165 172 164 159 164 173 168 165 170 170 189 217 209 208 210 219 223 227 225 220 216 215 207 192 188 192 196 185 184 190 190 200 200 194 146 126 152 168 187 196 194 188 189 192 194 188 195 186 172 163 169 191 177 180 195 172 176 200 209 213 196 206 172 159 171 178 167 175 137 166 166 266
185 191 187 178 181 180 175 172 173 180 172 181 181 178 161 161 165 165 152 153 164 137 166 199 198 204 204 213 226 241 268 307 241 230 226 218 199 192 182 180 178 185 188 194 176 142 128 109 101 146 197 200 188 192 193 191 190 186 184 196 203 216 219 171 170 176 191 175 179 204 192 213 201 188 194 170 177 152 160 155 172 179 183 196 206
183 188 186 181 183 173 168 172 178 180 188 185 176 164 163 159 157 158 177 175 142 156 190 158 196 199 190 212 238 250 244 248 237 224 220 215 200 173 152 145 156 171 162 155 139 136 141 156 167 186 216 189 176 175 173 184 187 176 175 190 203 205 199 266 142 200 174 177 188 198 203 195 190 210 190 171 142 173 145 184 183 188 180 191 213
186 188 182 185 178 172 171 174 181 186 181 175 167 167 165 176 173 163 144 148 153 160 163 175 180 186 195 204 219 229 232 234 219 210 204 193 177 147 113 124 132 137 146 137 134 154 169 178 183 196 156 148 149 149 148 153 155 148 162 177 195 210 213 211 178 168 177 188 185 203 208 182 202 176 167 152 161 184 177 202 179 190 192 209 190
188 185 186 182 174 177 176 175 182 177 172 167 169 175 176 163 163 166 163 167 168 176 175 174 186 180 188 190 197 220 237 207 207 194 178 164 150 129 122 119 120 115 109 127 158 183 187 185 185 181 164 161 153 152 156 156 151 158 165 183 191 198 200 194 180 172 175 188 195 203 183 188 171 155 161 169 174 171 179 180 182 182 164 104 254
188 180 187 187 183 180 174 174 175 169 166 166 172 180 181 178 171 167 148 154 159 145 159 162 170 177 180 176 176 189 200 187 184 178 168 162 154 148 150 153 155 152 149 160 179 188 186 184 182 177 169 167 164 159 160 154 156 165 179 187 195 204 212 200 176 161 162 167 180 183 173 174 162 156 158 152 133 127 111 92 91 111 147 208 224
192 189 191 187 184 178 175 172 173 169 167 169 181 182 181 179 172 159 148 161 162 172 178 180 180 173 175 179 177 185 191 195 183 177 172 166 157 162 159 160 163 163 173 180 188 187 189 183 180 176 172 177 175 172 167 160 169 178 184 191 199 199 212 202 185 172 171 170 171 168 164 162 161 160 161 159 153 142 125 134 193 168 178 214 242
194 188 194 187 182 174 172 171 171 170 170 179 182 187 185 175 173 170 162 165 170 177 167 159 176 180 175 193 193 183 202 212 179 182 178 176 168 169 169 163 164 161 176 192 186 194 190 181 179 178 181 186 182 182 178 170 179 185 185 189 196 208 212 184 178 192 190 188 188 181 176 173 170 169 170 170 168 159 159 199 182 160 207 205 218
188 193 191 180 175 171 169 171 171 171 178 184 180 175 179 181 172 164 159 152 153 150 138 126 104 51 91 167 86 78 39 348 264 192 187 183 168 161 151 142 145 182 196 208 196 186 185 187 187 187 190 187 189 191 187 180 189 187 192 190 205 212 208 174 180 176 173 167 176 162 174 176 176 175 184 186 185 180 191 194 144 176 197 204 188
189 167 162 167 168 169 170 172 173 172 178 180 178 179 165 152 159 156 147 136 133 130 121 120 118 82 58 60 48 52 63 34 322 238 209 206 183 156 143 147 193 204 205 197 186 210 197 195 200 194 191 191 196 197 197 190 197 198 187 205 208 225 184 181 192 185 183 185 179 179 180 169 173 168 187 204 211 196 186 187 179 186 198 192 187
151 162 160 162 166 170 170 172 169 171 169 170 166 154 161 155 144 142 139 129 122 121 122 118 118 118 115 119 123 123 144 149 207 202 206 204 196 179 183 197 201 194 195 199 203 202 202 205 206 203 197 197 198 200 201 201 200 200 205 215 220 209 143 184 193 177 178 174 179 183 187 185 193 191 193 204 212 209 195 196 192 194 193 193 188
148 153 163 163 163 163 165 161 160 163 158 148 148 154 151 144 148 144 140 138 132 129 132 131 132 141 151 157 157 176 175 168 171 206 213 210 207 198 193 213 194 183 195 215 213 222 218 209 208 205 204 200 201 202 205 205 203 206 219 228 228 162 173 187 170 172 172 173 182 197 197 199 203 204 206 208 210 207 202 199 197 202 209 207 195
150 151 153 156 159 160 160 159 158 153 153 157 151 150 150 141 139 141 140 138 137 138 140 144 138 139 136 154 175 177 187 190 184 197 214 218 216 214 213 210 190 184 200 217 214 222 216 216 216 208 209 209 207 206 209 210 208 215 220 219 211 178 148 158 169 175 187 190 191 208 206 203 208 211 208 213 208 200 205 204 205 200 214 217 227
144 146 147 151 151 155 157 154 149 149 153 153 151 147 149 146 142 148 149 146 147 144 146 140 131 131 141 163 221 221 207 183 203 201 211 218 229 230 231 227 202 209 206 232 222 216 213 215 213 206 209 214 212 210 211 212 213 217 216 211 195 167 152 176 188 194 191 196 209 217 218 215 215 221 219 210 200 199 202 203 203 204 203 213 220
149 147 151 152 153 151 147 150 150 151 157 155 153 152 148 149 143 153 148 151 153 153 157 153 153 153 151 174 195 210 203 200 204 210 211 217 226 235 240 238 235 222 227 238 229 228 228 215 206 205 206 212 215 216 220 223 223 217 210 200 189 177 180 185 191 175 199 211 218 226 235 228 228 246 259 195 175 174 187 196 188 196 190 218 229
149 152 152 153 150 150 144 145 149 155 160 163 158 158 154 156 151 156 157 159 161 160 159 161 159 162 174 181 192 195 198 198 211 212 201 206 222 237 240 240 239 235 231 219 214 224 222 218 210 215 217 220 221 220 223 225 230 225 212 198 192 190 182 189 189 195 218 221 227 232 237 241 242 232 187 166 176 196 180 188 178 201 168 206 266
145 149 155 152 150 152 155 157 155 158 160 160 158 158 157 155 153 157 163 161 165 167 167 171 173 176 186 194 190 193 192 201 215 216 201 188 215 228 237 256 252 242 229 197 192 206 227 217 210 219 214 222 220 226 236 247 248 240 220 200 198 192 179 190 194 203 215 222 230 234 231 203 118 127 188 185 206 202 187 182 192 185 157 207 223
156 159 156 158 159 161 160 160 159 160 164 163 160 158 163 161 162 168 171 172 168 177 177 183 186 184 189 188 188 191 208 214 216 209 218 196 205 196 198 211 219 203 210 209 172 172 172 39 276 358 335 335 275 274 276 272 240 230 228 206 205 176 173 177 194 213 221 221 239 164 182 154 195 197 189 202 208 193 178 179 188 180 184 161 213
148 149 153 156 160 162 162 165 168 162 159 159 161 161 162 166 164 162 177 162 168 168 182 190 189 190 173 178 175 203 221 225 235 207 199 189 179 179 199 215 204 204 206 175 125 85 85 90 109 211 185 218 240 237 245 249 259 238 224 198 165 174 182 189 207 216 216 209 223 215 223 195 214 195 205 212 213 191 181 176 208 151 198 184 216
151 158 161 159 156 162 165 169 166 163 161 157 150 132 94 132 138 143 160 187 169 161 153 182 196 170 169 215 172 165 195 219 232 193 199 191 196 194 199 199 193 193 197 189 158 147 157 173 199 202 221 210 222 228 226 222 229 232 227 203 192 194 203 209 215 216 203 210 215 215 223 205 217 202 205 216 218 192 198 190 192 183 177 211 212
157 157 162 170 173 169 166 163 164 160 156 149 147 145 130 80 69 109 133 129 122 105 105 114 119 139 140 151 242 140 149 172 166 181 207 214 208 209 206 206 206 200 191 155 141 176 187 194 220 213 221 213 224 230 224 223 224 221 223 212 212 212 218 218 222 217 217 217 222 224 223 216 225 212 213 216 208 205 187 204 180 205 199 197 214
163 169 169 164 165 169 165 160 155 153 149 145 145 143 143 136 102 69 77 87 89 98 108 114 118 123 107 124 125 350 9 14 357 215 196 241 254 233 219 210 214 199 199 170 169 203 193 210 224 230 225 231 240 237 233 230 232 226 225 219 226 216 218 229 223 217 226 224 227 227 222 225 226 221 219 217 215 215 204 205 197 195 213 212 221
156 158 161 160 162 159 156 157 157 156 154 151 150 148 150 151 144 127 76 69 82 90 98 110 117 118 109 116 149 164 224 303 345 2 13 331 276 256 239 219 213 209 203 189 171 216 213 223 232 248 231 241 246 241 246 236 235 232 222 226 232 222 219 228 211 213 223 227 227 232 224 228 226 225 223 217 213 224 214 213 215 210 206 212 230
161 162 164 162 157 159 159 158 154 153 149 145 146 146 148 143 138 136 127 107 72 55 55 79 101 100 116 131 115 93 63 58 41 29 354 328 278 254 244 251 250 243 207 194 199 226 226 235 249 246 246 246 245 244 248 244 239 234 234 233 237 236 225 191 194 222 223 226 228 236 230 230 223 225 231 225 223 224 226 222 215 217 220 221 227
145 145 149 154 157 154 151 145 142 139 141 142 141 137 137 138 139 140 145 145 143 130 115 63 68 115 106 86 67 66 64 61 60 60 46 42 325 268 312 62 270 334 334 96 187 219 229 237 248 251 247 251 250 241 246 248 243 239 236 238 239 233 223 202 214 216 224 226 229 231 229 228 227 225 225 229 226 226 228 227 224 223 227 230 227
145 146 149 147 141 139 136 135 135 136 136 138 138 133 134 137 137 140 135 133 132 131 118 123 141 41 76 61 60 59 59 54 58 55 54 55 46 144 101 42 138 251 246 288 268 246 230 236 241 252 245 252 250 250 246 248 246 242 238 233 238 230 225 221 218 218 223 225 230 232 228 229 221 223 230 235 233 233 235 233 232 232 232 234 231
146 147 147 143 138 130 128 130 134 137 135 133 129 125 125 126 127 128 131 132 130 122 121 105 74 51 46 46 39 40 55 53 47 45 50 47 41 82 141 168 187 212 214 244 255 262 267 267 252 254 252 251 253 248 251 251 252 252 250 242 237 235 232 226 224 218 221 226 231 225 226 229 222 219 218 232 240 237 238 240 239 238 234 236 235
147 145 141 138 131 129 130 131 133 128 126 128 129 132 133 133 136 137 135 132 129 127 120 120 115 113 100 30 27 84 56 44 48 30 31 31 33 45 79 136 173 194 233 239 240 238 250 258 258 254 258 255 259 261 257 258 253 254 254 252 245 242 241 239 235 224 223 227 230 227 225 229 223 222 221 231 237 239 240 238 236 239 241 237 228
128 129 130 130 127 129 130 131 133 132 132 130 133 132 133 132 130 127 127 126 126 129 132 126 122 116 125 150 53 50 69 45 62 53 30 21 22 31 28 357 327 255 247 245 256 258 257 265 266 264 260 259 260 259 258 260 258 256 256 257 254 250 245 243 239 230 226 229 233 230 226 230 227 224 225 231 240 240 241 240 236 234 236 235 231
131 130 126 123 118 123 126 128 127 125 129 128 127 124 125 135 142 142 139 136 137 135 131 123 119 119 152 122 105 88 87 89 88 86 65 44 31 11 36 24 357 338 328 324 321 308 303 294 288 287 284 279 278 280 278 279 278 275 271 264 264 261 251 240 241 237 233 229 232 229 225 228 228 227 228 232 236 237 239 239 239 235 236 240 240
124 121 120 117 117 116 110 114 121 128 129 130 137 140 148 145 143 137 135 132 132 126 123 124 128 154 147 97 73 82 100 88 83 65 59 54 33 21 3 6 10 360 348 354 336 337 329 331 335 335 334 331 324 315 308 302 298 292 282 275 269 267 265 256 245 242 239 234 230 230 228 227 225 223 233 234 234 237 241 243 243 241 238 238 238
125 125 122 124 122 121 124 124 125 126 131 138 141 147 144 142 135 134 134 133 130 128 124 119 116 92 67 75 65 63 72 62 70 58 36 29 24 360 0 357 360 10 4 360 355 351 347 345 338 336 333 333 337 331 329 320 312 302 294 285 278 276 272 268 257 247 244 243 242 236 233 229 227 227 235 240 235 233 238 236 238 238 239 237 236
125 124 123 122 123 131 134 135 136 136 142 140 142 134 131 130 132 133 131 128 128 125 118 106 90 77 66 61 64 62 68 63 61 52 46 30 23 18 11 1 354 352 354 350 352 355 349 340 332 329 329 326 325 326 322 321 321 320 316 310 301 294 287 282 273 260 248 246 245 242 239 237 236 233 233 231 234 234 234 235 237 238 236 235 234
121 119 118 117 118 113 120 130 135 136 138 134 128 127 128 125 122 122 121 119 112 108 106 108 102 86 66 50 58 63 57 54 46 45 41 33 24 15 358 351 349 355 352 350 340 344 342 330 325 319 321 318 316 316 318 319 325 323 319 316 310 304 298 292 286 277 261 256 253 252 247 242 240 238 239 235 230 233 237 233 234 234 233 234 232
115 118 118 116 115 120 121 118 122 126 126 123 119 119 119 122 123 119 112 108 104 100 97 95 90 91 80 63 64 69 60 62 53 47 25 19 5 342 339 344 345 345 344 342 340 346 344 338 334 334 332 329 327 328 325 325 327 322 321 318 316 310 310 310 311 304 289 270 264 259 251 246 240 236 238 235 228 232 237 234 230 232 234 233 228
112 112 114 118 120 123 126 129 127 129 132 135 134 126 120 109 106 106 107 100 100 99 96 91 94 94 97 87 78 77 64 66 32 33 26 3 0 337 333 339 346 347 346 345 346 351 346 345 341 335 330 325 325 326 321 324 319 320 315 313 309 308 312 312 316 313 303 289 275 267 262 256 249 242 234 234 232 230 235 235 230 229 229 230 229
99 106 111 120 123 126 123 128 128 132 128 124 118 119 116 113 106 100 97 102 102 103 96 96 88 85 79 84 77 59 55 66 49 35 356 322 317 321 329 342 352 347 342 335 339 339 341 341 339 334 328 326 326 325 322 320 318 316 315 313 313 313 318 319 322 317 313 305 297 287 276 271 261 254 242 237 241 236 234 234 228 228 228 226 226
105 106 112 117 122 124 127 125 123 120 118 119 116 116 114 110 106 103 102 101 100 101 102 97 95 94 84 61 69 80 66 74 51 42 5 352 327 333 349 348 351 345 348 355 350 359 355 348 341 334 327 323 320 314 307 303 298 297 298 301 300 301 304 308 304 302 301 299 295 290 284 276 271 264 253 240 237 233 233 236 229 230 225 226 225
113 119 121 124 126 127 133 133 132 131 131 128 124 116 109 105 103 103 102 101 105 106 112 102 89 85 90 82 86 74 74 69 53 7 5 352 11 6 10 14 14 9 23 4 349 345 340 333 325 316 311 304 306 308 307 306 307 305 304 301 301 301 301 302 302 297 296 293 290 288 286 283 278 273 266 258 249 239 239 236 230 227 223 222 221
102 106 111 111 114 115 112 111 113 104 111 111 96 111 110 102 103 105 109 105 102 99 95 103 101 100 107 84 77 84 78 69 29 46 40 30 6 354 6 12 16 357 351 333 323 317 310 300 299 297 304 312 316 318 319 317 316 313 306 300 307 307 306 307 306 302 296 287 288 282 281 277 276 271 268 261 258 249 246 237 230 223 221 216 215
95 94 91 100 89 74 80 81 94 97 95 95 101 91 105 110 115 115 113 118 122 115 110 111 108 96 94 109 120 104 99 86 101 110 61 348 310 350 347 352 333 324 311 305 300 301 298 308 317 323 323 321 316 311 306 305 301 303 309 311 314 317 320 321 316 311 306 301 290 283 273 270 266 267 262 262 258 256 244 238 226 221 216 213 208